sat.trackr.live / text

‹ back to catalog

STARLINK-35878

NORAD 67178 · 2025-303R

PAYLOAD ACTIVE UNKNOWN

§ Identity

Operator
Country
US
Launch date
2025-12-17
Launch site
AFETR
Launch vehicle
Mass (kg)
RCS (m²)

Purposes: comms

External: N2YO · Heavens-Above · Gunter

§ Orbital elements

Epoch: 2026-09-20T03:16:37.297920Z

Period
94.27 min
Inclination
43.0036°
Eccentricity
0.0001524
Mean motion
15.27570060 rev/d
Perigee alt
482.0 km
Apogee alt
484.1 km
Semi-major
6,861.2 km
B*
3.1989e-4
RAAN
292.5491°
Arg perigee
267.1020°
Mean anomaly
92.9658°
Rev number
4,247

§ Raw data

STARLINK-358781 67178U 25303R   26263.13654280  .00008548  00000+0  31989-3 0  99972 67178  43.0036 292.5491 0001524 267.1020  92.9658 15.27570060 42478

JSON: /api/v1/satellites/67178 · /tle

For live sub-satellite position, see the globe view (requires WebGL).

§ Visibility from observer

Set your observer location to see the next 7 days of passes ≥ 10°. The values pass through the URL so the page stays shareable.

No JS? Fill the form by hand. The geolocation button needs JavaScript.